Regional Weather Roundup
Issued by NWS

Home | Current Version | Previous Version | Graphics & Text | Print | Product List | Glossary On
Versions: 1 2 3 4 5 6 7 8 9 10 11 12 13 14 15 16 17 18 19 20 21 22 23 24 25 26 27 28 29 30 31 32 33 34 35 36 37 38 39 40 41 42 43 44 45 46 47 48 49 50
000
ASUS43 KIND 061559
RWRIN

WEATHER ROUNDUP FOR INDIANA
NATIONAL WEATHER SERVICE INDIANAPOLIS IN
1200 PM EDT MON JUL 06 2015

NOTE: "FAIR" INDICATES FEW OR NO CLOUDS BELOW 12,000 FEET WITH NO
SIGNIFICANT WEATHER AND/OR OBSTRUCTIONS TO VISIBILITY.

* - STATION DOES NOT REPORT WEATHER SUCH AS PRECIPITATION OR FOG.

+ - STATION NOT QUALITY CONTROLLED BY THE NATIONAL WEATHER SERVICE.
    USE DATA WITH CAUTION...ESPECIALLY DEWPOINT AND RELATIVE
    HUMIDITY OBSERVATIONS.

INZ001>003-010>013-019-020-061700-
NORTHWEST INDIANA

CITY           SKY/WX    TMP DP  RH WIND       PRES   REMARKS
RENSSELAER +   FAIR      81  70  69 S14       30.03F

$$

LMZ046-743>745-061700-
SOUTHERN LAKE MICHIGAN

STATION/POSITION TIME  TEMP    WIND        PRES    WAVE
                       AIR SEA DIR/SP/G            HT
                 (UTC) (F)     (DEG/KT/KT) (MB)    (FT)
BURNS HARBOR     1500   78     190/ 10/ 17 1016.3F
MICHIGAN CITY    1500   75     180/ 12/ 16   N/A
5NW MICH CITY    1500   72 66  200/  8/ 10   N/A     1

$$

INZ004-005-014>016-021>024-061700-
NORTH CENTRAL INDIANA

CITY           SKY/WX    TMP DP  RH WIND       PRES   REMARKS
ELKHART        FAIR      81  68  65 SW9       30.05
GOSHEN         PTSUNNY   79  69  71 S13       30.04S
SOUTH BEND     FAIR      80  67  64 SW14      30.05R

$$

INZ006>009-017-018-025>027-061700-
NORTHEAST INDIANA

CITY           SKY/WX    TMP DP  RH WIND       PRES   REMARKS
ANGOLA *+        N/A     81  66  61 S8        30.05F
FORT WAYNE     FAIR      79  68  69 SW8       30.06F

$$

INZ028-029-035-036-043>045-051>053-061700-
WEST CENTRAL INDIANA

CITY           SKY/WX    TMP DP  RH WIND       PRES   REMARKS
CRAWFORDSVL +  FAIR      78  64  63 SW10      30.06S
GREENCASTLE +  FAIR      79  64  61 CALM      30.07S
LAFAYETTE      FAIR      80  67  64 SW10G18   30.04S
TERRE HAUTE    FAIR      81  69  67 S9        30.06S

$$

INZ030>032-037>040-046>048-054>057-064-065-061700-
CENTRAL INDIANA

CITY           SKY/WX    TMP DP  RH WIND       PRES   REMARKS
COLUMBUS       SUNNY     81  64  57 S9        30.07F
GREENWOOD *+   FAIR      79  66  65 S3        30.08F
INDIANAPOLIS   FAIR      80  68  66 S12       30.04F
-EAGLE CREEK   FAIR      80  68  66 W8        30.05F
KOKOMO *+      FAIR      81  68  65 SW13      30.05S
MT COMFORT *+  FAIR      81  61  50 SW7       30.07S
SHELBYVILLE    FAIR      80  68  66 S9        30.07F

$$

INZ033-034-041-042-049-050-058-059-061700-
EAST CENTRAL INDIANA

CITY           SKY/WX    TMP DP  RH WIND       PRES   REMARKS
MUNCIE         FAIR      79  65  62 SW8       30.07S

$$

INZ060-061-067>069-081>083-085>088-061700-
SOUTHWEST INDIANA

CITY           SKY/WX    TMP DP  RH WIND       PRES   REMARKS
EVANSVILLE     FAIR      82  71  69 SW13      30.08R
HUNTINGBURG *+ FAIR      81  72  74 S8        30.09S

$$

INZ062-063-066-070>080-084-089>092-061700-
SOUTH CENTRAL AND SOUTHEAST INDIANA

CITY           SKY/WX    TMP DP  RH WIND       PRES   REMARKS
BLOOMINGTON    FAIR      80  68  66 SW8       30.08S
MADISON *+     FAIR      79  66  65 S3        30.11F
SEYMOUR +      FAIR      81  70  69 S6        30.07F

$$



USA.gov is the U.S. government's official web portal to all federal, state and local government web resources and services.